FW5955 Weather Reports


time (UTC)temp
F
wind
direction
speed
knots
gust
knots
rain 1hr
in
rain 24hr
in
rain mn
in
humidity
%
barometer
mb
20260510040015 44 174 1.7 3.5 0.01 0.02 0.01 93 1021.4
20260510034512 43 243 0.9 5.2 0.01 0.02 0.01 93 1021.5
20260510033013 43 167 1.7 4.3 0.01 0.02 0.01 93 1021.3
20260510031509 43 180 0.9 4.3 0.01 0.02 0.01 93 1021.3
20260510030006 44 217 0.9 5.2 0.00 0.01 0.00 93 1021.5
20260510024506 44 255 2.6 5.2 0.00 0.01 0.01 93 1021.4
20260510023005 44 257 2.6 7.0 0.00 0.01 0.01 93 1021.4
20260510021506 43 262 4.3 8.7 0.00 0.01 0.01 93 1021.5
20260510020003 43 264 3.5 8.7 0.00 0.01 0.01 93 1021.4
20260510014503 44 236 4.3 8.7 0.00 0.01 0.01 93 1021.4
20260510013001 44 243 4.3 7.8 0.00 0.01 0.01 92 1021.3
20260510011502 44 228 4.3 7.0 0.00 0.01 0.01 91 1021.4
20260510010100 46 207 3.5 8.7 0.00 0.01 0.01 89 1021.2
20260510004601 46 251 0.0 2.6 0.01 0.01 0.01 89 1021.2
20260510003100 46 258 0.0 3.5 0.01 0.01 0.01 89 1021.1
20260510001556 46 265 0.9 5.2 0.01 0.01 0.01 88 1021.1
20260509234604 46 263 5.2 9.6 0.00 0.00 0.00 84 1020.7
20260509233056 45 236 4.3 11.3 0.00 0.00 0.00 85 1020.5
20260509231607 45 243 6.1 10.4 0.00 0.00 0.00 83 1020.4
20260509224546 46 255 4.3 10.4 0.00 0.00 0.00 78 1019.8
20260509223047 47 224 7.0 13.0 0.00 0.00 0.00 75 1019.8
20260509221543 47 221 7.0 13.9 0.00 0.00 0.00 71 1019.5
20260509220042 47 261 7.0 15.6 0.00 0.00 0.00 71 1019.4
20260509214540 48 243 7.8 13.9 0.00 0.00 0.00 72 1019.1
20260509213038 47 261 7.0 13.9 0.00 0.00 0.00 73 1019.0
20260509211537 49 263 7.8 13.9 0.00 0.00 0.00 71 1019.0
20260509210039 49 263 7.8 15.6 0.00 0.00 0.00 71 1018.8
20260509204536 49 243 7.0 16.5 0.00 0.00 0.00 72 1018.7
20260509203039 50 244 5.2 15.6 0.00 0.00 0.00 71 1018.4
20260509201532 50 213 4.3 12.2 0.00 0.00 0.00 70 1018.2
20260509200030 50 244 5.2 14.8 0.00 0.00 0.00 69 1018.2
20260509194530 51 240 7.8 13.9 0.00 0.00 0.00 68 1018.0
20260509193028 50 264 8.7 14.8 0.00 0.00 0.00 69 1017.9
20260509191528 51 264 8.7 13.9 0.00 0.00 0.00 68 1017.7
20260509190032 51 255 6.1 14.8 0.00 0.00 0.00 69 1017.9
20260509184538 52 236 9.6 15.6 0.00 0.00 0.00 65 1017.8
20260509183032 52 203 8.7 14.8 0.00 0.00 0.00 65 1017.8
20260509181525 52 240 9.6 16.5 0.00 0.00 0.00 66 1017.7
20260509180024 50 217 8.7 16.5 0.00 0.00 0.00 71 1017.6
20260509174523 49 237 8.7 13.9 0.00 0.00 0.00 78 1017.6
20260509173027 49 249 9.6 15.6 0.00 0.00 0.00 79 1017.5
20260509171530 50 256 7.8 13.9 0.00 0.00 0.00 78 1017.3
20260509170019 51 251 7.0 11.3 0.00 0.00 0.00 75 1017.2
20260509164520 52 181 6.1 12.2 0.00 0.00 0.00 71 1017.1
20260509163025 52 216 7.8 14.8 0.00 0.00 0.00 65 1017.1
20260509161523 53 262 6.1 13.0 0.00 0.00 0.00 61 1017.1
20260509160018 54 236 6.1 11.3 0.00 0.00 0.00 60 1017.0
20260509154515 54 169 5.2 11.3 0.00 0.00 0.00 61 1016.8
20260509153024 55 240 7.8 13.0 0.00 0.00 0.00 57 1016.9
20260509151512 54 236 7.0 12.2 0.00 0.00 0.00 55 1016.9
20260509150009 54 227 6.1 12.2 0.00 0.00 0.00 61 1016.8
20260509144508 53 253 7.8 12.2 0.00 0.00 0.00 64 1016.7
20260509143007 54 293 5.2 10.4 0.00 0.00 0.00 64 1016.6
20260509141507 53 242 5.2 12.2 0.00 0.00 0.00 68 1016.5
20260509140002 53 238 7.8 11.3 0.00 0.00 0.00 65 1016.3
20260509134600 53 247 5.2 10.4 0.00 0.00 0.00 65 1016.2
20260509133105 53 248 6.1 9.6 0.00 0.00 0.00 65 1016.0
20260509131554 53 254 3.5 8.7 0.00 0.00 0.00 67 1015.7
20260509130055 52 250 4.3 8.7 0.00 0.00 0.00 67 1015.8
20260509124556 52 246 2.6 7.0 0.00 0.00 0.00 68 1015.5
20260509123054 52 220 2.6 5.2 0.00 0.00 0.00 70 1015.5
20260509121556 51 259 3.5 7.8 0.00 0.00 0.00 71 1015.4
20260509120044 52 233 3.5 6.1 0.00 0.00 0.00 70 1015.3
20260509114555 50 240 2.6 5.2 0.00 0.00 0.00 71 1015.2
20260509113040 51 188 2.6 5.2 0.00 0.00 0.00 73 1015.1
20260509111537 50 223 0.0 3.5 0.00 0.00 0.00 74 1014.8
20260509110033 49 254 0.9 3.5 0.00 0.00 0.00 74 1014.6
20260509104529 47 267 0.0 2.6 0.00 0.00 0.00 77 1014.3
20260509103025 46 234 0.0 1.7 0.00 0.00 0.00 82 1014.2
20260509101524 44 73 0.0 0.9 0.00 0.00 0.00 87 1014.0
20260509100019 42 32 0.0 0.9 0.00 0.00 0.00 91 1013.6
20260509094523 39 32 0.0 0.0 0.00 0.01 0.00 91 1013.2
20260509093015 39 32 0.0 0.9 0.00 0.01 0.00 90 1013.0
20260509091513 39 258 0.0 0.9 0.00 0.01 0.00 91 1012.7
20260509090031 38 270 0.0 1.7 0.00 0.01 0.00 91 1012.5
20260509084510 38 278 0.0 2.6 0.00 0.01 0.00 92 1012.4
20260509083018 38 264 0.0 0.9 0.00 0.01 0.00 92 1012.1
20260509081506 39 268 0.0 0.9 0.00 0.01 0.00 91 1012.0
20260509080002 40 307 0.0 2.6 0.00 0.01 0.00 91 1011.9
20260509074603 40 258 0.9 3.5 0.00 0.01 0.00 91 1011.7
20260509073113 40 265 0.9 3.5 0.00 0.01 0.00 91 1011.7
20260509071601 40 266 1.7 3.5 0.00 0.01 0.00 90 1011.6
20260509070059 40 254 0.9 3.5 0.00 0.01 0.00 90 1011.5
20260509064553 40 266 0.0 3.5 0.00 0.01 0.00 90 1011.3
20260509063102 40 275 0.9 2.6 0.00 0.01 0.00 89 1011.0
20260509061549 40 257 0.0 3.5 0.00 0.01 0.00 88 1010.9
20260509060049 41 248 0.9 3.5 0.00 0.01 0.00 88 1010.6
20260509054545 41 266 1.7 3.5 0.00 0.01 0.00 87 1010.5
20260509053046 41 268 0.9 2.6 0.00 0.01 0.00 87 1010.2
20260509051544 41 276 0.9 3.5 0.00 0.01 0.00 87 1010.0
20260509050050 40 277 0.9 3.5 0.00 0.01 0.00 87 1009.8
20260509044535 41 238 0.0 2.6 0.00 0.01 0.00 86 1009.6
20260509043039 41 259 0.0 0.9 0.00 0.01 0.00 86 1009.4
20260509041528 42 277 0.0 1.7 0.00 0.01 0.00 84 1009.3